Погода Богучаны

Погода Богучаны : погода сейчас, прогноз погоды и архив. Всё, что Вы хотите узнать о погоде Богучаны!

Хотите узнать прогноз погоды Богучаны? Тогда Вам сюда: Погода Богучаны

Поиск расширенной информации на нашем сайте:

Другие новости

Новости СМИ2

Главная страница сайта

Новости сайта

03.07.2017

Напоминаем, что на нашем специализированном сайте Метеоцентр.Азия вы можете получить высокодетализированные автоматические прогнозы погоды по пунктам России, СНГ и мира в авиационном формате (включающие направление и скорость ветра, видимость, явления погоды, количество и форму облачности, нижнюю и верхнюю границу облачности).

Рекомендуем: заказ рулонных жалюзи

Погода Богучаны - сегодня

Время (UTC), дата Ветер
(°,м/с) 
Видим.   Явления Облачность Т
(°С)
Тd
(°С)
f(%) Тe
(°С)
Pmin
(гПа)
dP
(гПа)
Po
(мм)
O2
(г/м3)
Тmin Tmax R s Состояние
почвы
03 20.07.17 320 (СЗ) 20000 м    9/8 600 м кучево-дожд., верхняя 
[Cb cap|Ci fib]
+17.1 +13.8 81 +26  1008.8  -0.3  745  280           
06 20.07.17 070 (В) 20000 м    8/5 600 м кучево-дожд., верхняя 
[Cb cap|Ci fib]
+23.6 +12.6 50 +29  1007  -1.5  744  273           
09 20.07.17 100 (В) 20000 м    9/8 600 м кучево-дожд., верхняя 
[Cb cap|Ci fib]
+26 +10.2 37 +28  1006.5  -0.3  744  272           
12 20.07.17 260 (З) 10 км  слаб. ливневой дождь  10/10 600 м кучево-дожд. 
[Cb cap]
+19.3 +16 81 +32  1008.2  1.3  745  277    +26     
15 20.07.17 тихо ()   20000 м  {ливн. осадки}  8/8 600 м кучево-дожд. 
[Cb cap]
+15.2 +14.2 94 +23  1008.9  0.5  745  281           
18 20.07.17 тихо ()   0500 м  туман{ливн. осадки}  6/6 600 м кучево-дожд. 
[Cb cap]
+12.7 +12 96 +17  1008.8  -0.3  745  284           
21 20.07.17 330 (СЗ) 4000 м  дымка{туман}  10/10 600 м кучево-дожд. 
[Cb cap]
+12.3 +11.7 96 +18  1008.6  -0.1  745  285           
00 21.07.17 280 (З) 20000 м  {туман}  4/3 600 м кучево-дожд., средняя 
[Cb cap|Ac trans]
+15 +13.6 91 +22  1009.7  1.2  746  282  +11.4    0.3    влажная 
03 21.07.17 270 (З) 20000 м    10/3 600 м кучево-дожд., средняя, верхняя 
[Cb cap|Ac trans|Ci fib]
+19.3 +13.5 69 +27  1010.2  0.7  746  278           
06 21.07.17 090 (В) 20000 м    10/1 600 м кучево-дожд., средняя, верхняя 
[Cb cap|Ac trans|Ci fib]
+23.4 +13.2 53 +29  1010  746  274           
09 21.07.17 070 (В) 4{11}  10 км  гроза, ливневой дождь  10/8 600 м кучево-дожд., верхняя 
[Cb cap|Ci fib]
+19.3 +13.9 71 +27  1010.9  0.6  746  278           
12 21.07.17 300 (СЗ) 10 км  гроза, ливневой дождь  10/10 600 м кучево-дожд. 
[Cb cap]
+15.8 +13.7 87 +24  1012.8  1.8  748  282    +25.5  10     
15 21.07.17 тихо ()   20000 м  {гроза, ливн. осадки}  10/9 600 м кучево-дожд., верхняя 
[Cb cap|Ci fib]
+15.3 +14.5 95 +23  1014.3  1.4  749  283           
18 21.07.17 тихо ()   50000 м  {гроза, ливн. осадки}  10/10 600 м кучево-дожд. 
[Cb cap]
+13.7 +13 96 +19  1015.2  0.8  749  285           
21 21.07.17 080 (В) 0500 м  туман  10/10 600 м кучево-дожд. 
[Cb cap]
+11.5 +10.9 96 +15  1016.3  0.9  750  288           
00 22.07.17 тихо ()   4000 м  дымка{туман}  3/1 600 м кучево-дожд., верхняя 
[Cb cap|Ci fib]
+13.4 +12.9 97 +19  1017.4  1.2  751  286  +11.1    0.3    влажная 
03 22.07.17 100 (В) 20000 м    9/9 600 м кучево-дожд. 
[Cb cap]
+16.8 +10 64 +18  1017.7  0.5  751  283           
06 22.07.17 110 (В) 20000 м    6/6 600 м кучево-дожд. 
[Cb cap]
+20.5 +9.9 51 +22  1017  -0.5  751  280           
09 22.07.17 100 (В) 20000 м    1/1 600 м кучево-дожд. 
[Cb cap]
+22.6 +7.9 39 +23  1015.9  -1  750  278           
12 22.07.17 100 (В) 20000 м    1/1 600 м кучево-дожд. 
[Cb cap]
+22.2 +5.1 33 +22  1015.7  -0.2  750  279    +22.8       
15 22.07.17 тихо ()   20000 м    1/1 600 м кучево-дожд. 
[Cb cap]
+13.7 +9 73 +14  1016.8  0.6  751  286           
18 22.07.17 тихо ()   50000 м    ясно 
+9.4 +8.1 92 +9  1017.5  0.5  751  291           
21 22.07.17 270 (З) 20000 м    ясно 
+7.7 +7 95 +9  1017.8  0.2  751  293           
00 23.07.17 060 (СВ) 20000 м    ясно 
+11.6 +8 79 +13  1018.2  0.6  752  289  +7.5        сухая 
03 23.07.17 040 (СВ) 20000 м    ясно 
+15.9 +8.5 61 +17  1017.4  -0.5  751  285           
Время (UTC), дата Ветер
(°,м/с) 
Видим.   Явления Облачность Т
(°С)
Тd
(°С)
f(%) Тe
(°С)
Pmin
(гПа)
dP
(гПа)
Po
(мм)
O2
(г/м3)
Тmin Tmax R s Состояние
почвы

Для получения пояснительной информации подведите курсор к названию столбца.

ПОГОДА Богучаны - архив

Всё, что Вы хотите узнать о погоде Богучаны - удобно и подробно!

Выберите нужную дату (начиная с 1 января 2015* года) и нажмите кнопку "Найти".
Будут отображены архивные сводки погоды по пункту Богучаны, начиная с указанной даты.


Отображать данные в формате CSV (для использования в таблицах Excel)


Внимание! Наш архив погоды предназначен исключительно для личного некоммерческого использования в познавательных целях. Если Вам необходимы официальные справки о состоянии погоды (для производственных, юридических, коммерческих и т.п. целей), обращайтесь в органы Росгидромета.

*Примечание: данная дата относится к архиву по метеостанциям СССР (Россия, СНГ, Балтия).
Архив по метеостанциям Зарубежной Европы и Азии (кроме Китая) хранится 10 дней, по другим регионам земного шара (Китай, Африка, Америка, Австралия, Океания) - 1 день.

Богучаны - район местоположения метеостанции


Название, широта, долгота, высота метеостанции:
Богучаны 58.4°ш. 97.4°д. 133 м над ур. моря [Российская Федерация]

Дополнительная информация

В oтличие oт бoльшинства пoгoдных сайтoв мы публикуем пoдрoбную метеoинфoрмацию в детальнoм прoфессиoнальнoм фoрмате.

Характеристики температуры и влажнoсти вoздуха измеряются на высoте 2 м в тени вдали oт зданий и деревьев.
Скoрoсть ветра измеряется на высoте 10 м (на урoвне рoста челoвека скoрoсть ветра ниже в 1.5-2 раза). Если метеoстанция нахoдится в гoрoде или в лесу, тo скoрoсть ветра занижена на 2-4 м/с пo сравнению с oткрытым местoм. Скoрoсть ветра над акватoриями крупных рек и oзёр, а также на вершинах хoлмoв на 2-5 м/с выше, чем в oбычных услoвиях.
Атмoсфернoе давление в разных тoчках местнoсти мoжет значительнo oтличаться oт давления на метеoстанции, в зависимoсти oт услoвий рельефа (при пoдъёме на 10 м давление пoнижается примернo на 1 мм рт.ст.).